| time (UTC) | temp F | wind direction | speed MPH | gust MPH | rain 1hr in | rain 24hr in | rain mn in | humidity % | barometer mb |
| 20260503041505 | 79 | 212 | 5.0 | 7.0 | 0.00 | 0.01 | 0.01 | 96 | 1011.5 |
| 20260503040007 | 79 | 210 | 4.0 | 8.0 | 0.00 | 0.01 | 0.01 | 96 | 1011.5 |
| 20260503034504 | 79 | 211 | 2.0 | 6.0 | 0.00 | 0.01 | 0.01 | 96 | 1011.5 |
| 20260503033005 | 79 | 162 | 2.0 | 6.0 | 0.00 | 0.01 | 0.01 | 96 | 1011.3 |
| 20260503031503 | 79 | 205 | 0.0 | 5.0 | 0.00 | 0.01 | 0.01 | 95 | 1011.4 |
| 20260503030005 | 79 | 202 | 4.0 | 7.0 | 0.00 | 0.01 | 0.01 | 95 | 1011.2 |
| 20260503024501 | 79 | 207 | 5.0 | 9.0 | 0.00 | 0.01 | 0.01 | 94 | 1011.0 |
| 20260503023001 | 80 | 187 | 1.0 | 7.0 | 0.00 | 0.01 | 0.01 | 94 | 1010.7 |
| 20260503021559 | 80 | 194 | 5.0 | 9.0 | 0.00 | 0.01 | 0.01 | 93 | 1010.3 |
| 20260503020104 | 80 | 213 | 6.0 | 11.0 | 0.00 | 0.01 | 0.01 | 93 | 1010.2 |
| 20260503014627 | 80 | 206 | 5.0 | 11.0 | 0.00 | 0.01 | 0.01 | 93 | 1010.0 |
| 20260503013058 | 80 | 210 | 4.0 | 7.0 | 0.00 | 0.01 | 0.01 | 93 | 1009.8 |
| 20260503011625 | 80 | 181 | 3.0 | 8.0 | 0.00 | 0.01 | 0.01 | 93 | 1009.7 |
| 20260503010056 | 79 | 257 | 0.0 | 0.0 | 0.00 | 0.01 | 0.01 | 94 | 1009.4 |
| 20260503004556 | 79 | 252 | 0.0 | 2.0 | 0.00 | 0.01 | 0.01 | 93 | 1009.4 |
| 20260503003057 | 80 | 248 | 0.0 | 3.0 | 0.00 | 0.01 | 0.01 | 93 | 1009.3 |
| 20260503001554 | 80 | 248 | 1.0 | 4.0 | 0.00 | 0.01 | 0.01 | 92 | 1008.9 |
| 20260503000054 | 80 | 218 | 1.0 | 5.0 | 0.00 | 0.01 | 0.01 | 92 | 1008.7 |
| 20260502234612 | 81 | 209 | 3.0 | 8.0 | 0.00 | 0.01 | 0.01 | 91 | 1008.6 |
| 20260502233057 | 81 | 165 | 2.0 | 6.0 | 0.00 | 0.01 | 0.01 | 92 | 1008.4 |
| 20260502231551 | 81 | 221 | 2.0 | 5.0 | 0.00 | 0.01 | 0.01 | 93 | 1008.2 |
| 20260502230057 | 81 | 163 | 3.0 | 9.0 | 0.00 | 0.01 | 0.01 | 93 | 1008.1 |
| 20260502224549 | 81 | 231 | 4.0 | 11.0 | 0.00 | 0.01 | 0.01 | 93 | 1007.9 |
| 20260502223100 | 81 | 194 | 7.0 | 12.0 | 0.00 | 0.01 | 0.01 | 93 | 1007.9 |
| 20260502221547 | 82 | 229 | 5.0 | 9.0 | 0.00 | 0.01 | 0.01 | 90 | 1007.9 |
| 20260502220056 | 81 | 246 | 3.0 | 8.0 | 0.00 | 0.01 | 0.01 | 91 | 1007.8 |
| 20260502214548 | 81 | 210 | 6.0 | 12.0 | 0.00 | 0.01 | 0.01 | 92 | 1008.0 |
| 20260502213049 | 81 | 174 | 6.0 | 14.0 | 0.00 | 0.01 | 0.01 | 93 | 1007.9 |
| 20260502211544 | 81 | 172 | 8.0 | 13.0 | 0.00 | 0.01 | 0.01 | 93 | 1008.0 |
| 20260502210046 | 82 | 204 | 10.0 | 16.0 | 0.00 | 0.01 | 0.01 | 91 | 1008.1 |
| 20260502204540 | 82 | 207 | 10.0 | 16.0 | 0.00 | 0.01 | 0.01 | 91 | 1008.3 |
| 20260502203046 | 82 | 196 | 9.0 | 16.0 | 0.00 | 0.01 | 0.01 | 92 | 1008.5 |
| 20260502201539 | 82 | 170 | 9.0 | 17.0 | 0.00 | 0.01 | 0.01 | 90 | 1008.7 |
| 20260502200035 | 82 | 202 | 10.0 | 16.0 | 0.00 | 0.01 | 0.01 | 90 | 1008.9 |
| 20260502194532 | 83 | 213 | 8.0 | 12.0 | 0.00 | 0.01 | 0.01 | 90 | 1009.2 |
| 20260502193033 | 83 | 203 | 6.0 | 13.0 | 0.00 | 0.01 | 0.01 | 91 | 1009.5 |
| 20260502191535 | 83 | 193 | 8.0 | 13.0 | 0.00 | 0.01 | 0.01 | 91 | 1009.7 |
| 20260502190028 | 82 | 199 | 8.0 | 14.0 | 0.00 | 0.01 | 0.01 | 91 | 1010.0 |
| 20260502184535 | 82 | 171 | 7.0 | 14.0 | 0.00 | 0.01 | 0.01 | 91 | 1010.1 |
| 20260502183029 | 82 | 200 | 10.0 | 15.0 | 0.00 | 0.01 | 0.01 | 91 | 1010.5 |
| 20260502181525 | 82 | 196 | 8.0 | 13.0 | 0.00 | 0.01 | 0.01 | 92 | 1010.9 |
| 20260502163021 | 82 | 211 | 6.0 | 12.0 | 0.00 | 0.01 | 0.01 | 93 | 1012.0 |
| 20260502161518 | 82 | 205 | 5.0 | 11.0 | 0.00 | 0.01 | 0.01 | 92 | 1012.0 |
| 20260502151515 | 81 | 160 | 3.0 | 9.0 | 0.00 | 0.01 | 0.01 | 92 | 1012.5 |
| 20260502140104 | 78 | 285 | 1.0 | 6.0 | 0.00 | 0.01 | 0.01 | 99 | 1012.1 |
| 20260502123049 | 75 | 310 | 0.0 | 0.0 | 0.01 | 0.01 | 0.01 | 100 | 1010.9 |
| 20260502121548 | 75 | 302 | 0.0 | 4.0 | 0.01 | 0.01 | 0.01 | 100 | 1010.6 |
| 20260502114545 | 76 | 288 | 5.0 | 7.0 | 0.01 | 0.01 | 0.01 | 100 | 1010.7 |
| 20260502113050 | 76 | 290 | 4.0 | 7.0 | 0.00 | 0.00 | 0.00 | 100 | 1010.6 |
| 20260502111543 | 76 | 309 | 3.0 | 7.0 | 0.00 | 0.00 | 0.00 | 100 | 1010.4 |
| 20260502110046 | 76 | 301 | 2.0 | 5.0 | 0.00 | 0.00 | 0.00 | 100 | 1010.1 |
| 20260502104543 | 76 | 309 | 2.0 | 3.0 | 0.00 | 0.00 | 0.00 | 100 | 1010.0 |
| 20260502103041 | 76 | 318 | 1.0 | 4.0 | 0.00 | 0.00 | 0.00 | 100 | 1010.0 |
| 20260502101548 | 76 | 316 | 0.0 | 5.0 | 0.00 | 0.00 | 0.00 | 100 | 1009.7 |
| 20260502071526 | 76 | 309 | 0.0 | 0.0 | 0.00 | 0.00 | 0.00 | 100 | 1010.2 |
| 20260502070038 | 76 | 314 | 0.0 | 0.0 | 0.00 | 0.00 | 0.00 | 100 | 1010.2 |
| 20260502064522 | 76 | 300 | 0.0 | 0.0 | 0.00 | 0.00 | 0.00 | 100 | 1010.4 |
| 20260502063026 | 77 | 307 | 0.0 | 0.0 | 0.00 | 0.00 | 0.00 | 100 | 1010.5 |
| 20260502061519 | 77 | 306 | 0.0 | 0.0 | 0.00 | 0.00 | 0.00 | 99 | 1010.6 |
| 20260502060032 | 77 | 304 | 0.0 | 0.0 | 0.00 | 0.00 | 0.00 | 100 | 1010.9 |
| 20260502054528 | 77 | 283 | 0.0 | 0.0 | 0.00 | 0.00 | 0.00 | 99 | 1011.0 |
| 20260502053016 | 77 | 304 | 0.0 | 0.0 | 0.00 | 0.00 | 0.00 | 99 | 1011.2 |
| 20260502051515 | 77 | 308 | 0.0 | 0.0 | 0.00 | 0.00 | 0.00 | 99 | 1011.2 |
| 20260502050019 | 77 | 314 | 0.0 | 0.0 | 0.00 | 0.00 | 0.00 | 99 | 1011.3 |
| 20260502044516 | 78 | 311 | 0.0 | 0.0 | 0.00 | 0.00 | 0.00 | 98 | 1011.3 |
| 20260502043013 | 79 | 259 | 0.0 | 0.0 | 0.00 | 0.00 | 0.00 | 97 | 1011.4 |